period_start,C,m1,H,J0,J1,J2,J3,J4,J5,JA,JB,JC,JD,JJ,JK,JN,#
2017-07-09 00:02:40,0.00,0.34,0.00,26.68,30.52,32.94,13.80,43.23,1020.52,2017.99,3362.97,2977.85,3409.98,600.05,591.03,40.83,0000 0000 0000 0000 000000
2017-07-09 00:07:41,0.01,0.34,0.00,26.70,30.52,32.93,13.68,43.13,1020.52,2017.98,3362.84,2977.58,3409.92,599.81,590.77,40.88,0000 0000 0000 0000 000000
2017-07-09 00:12:43,0.03,0.34,0.00,26.70,30.53,32.94,13.79,43.17,1020.52,2017.99,3362.27,2977.20,3409.57,600.20,591.06,40.93,0000 0000 0000 0000 000000
2017-07-09 00:17:44,0.01,0.34,0.00,26.71,30.54,32.94,13.76,43.33,1020.52,2017.99,3362.00,2977.00,3409.03,600.12,590.99,40.98,0000 0000 0000 0000 000000
2017-07-09 00:22:45,0.00,0.34,0.00,26.71,30.54,32.94,13.76,43.48,1020.52,2017.99,3361.97,2977.00,3409.00,599.78,590.66,41.03,0000 0000 0000 0000 000000
2017-07-09 00:27:46,0.00,0.34,0.00,26.72,30.55,32.95,13.73,43.20,1020.52,2017.99,3361.84,2976.99,3408.98,599.75,590.67,41.08,0000 0000 0000 0000 000000
2017-07-09 00:32:48,0.02,0.35,0.00,26.72,30.55,32.94,13.77,43.15,1020.52,2017.99,3361.41,2976.78,3408.70,600.07,590.98,41.13,0000 0000 0000 0000 000000
2017-07-09 00:37:49,0.02,0.35,0.00,26.72,30.55,32.95,13.72,43.13,1020.52,2017.99,3361.01,2976.18,3408.06,599.61,590.52,41.18,0000 0000 0000 0000 000000
2017-07-09 00:42:50,0.00,0.35,0.00,26.72,30.55,32.97,13.74,43.28,1020.52,2017.99,3361.00,2976.07,3408.01,600.11,590.99,41.23,0000 0000 0000 0000 000000
2017-07-09 00:47:51,0.00,0.35,0.00,26.72,30.55,32.97,13.73,43.19,1020.52,2017.99,3360.97,2976.02,3408.00,599.92,590.90,41.28,0000 0000 0000 0000 000000
2017-07-09 00:52:53,0.00,0.35,0.00,26.71,30.55,32.96,13.72,43.13,1020.52,2017.99,3360.87,2976.01,3408.00,599.74,590.67,41.33,0000 0000 0000 0000 000000
2017-07-09 00:57:54,0.00,0.35,0.00,26.71,30.55,32.96,13.74,43.23,1020.52,2017.99,3360.48,2976.00,3408.00,599.89,590.93,41.38,0000 0000 0000 0000 000000
2017-07-09 01:02:55,0.00,0.35,0.00,26.70,30.55,32.97,13.70,43.22,1020.52,2017.99,3360.15,2976.00,3407.97,599.80,590.82,41.43,0000 0000 0000 0000 000000
2017-07-09 01:07:57,0.00,0.35,0.00,26.70,30.55,32.98,13.70,43.19,1020.52,2017.99,3360.01,2976.00,3407.88,599.89,590.75,41.49,0000 0000 0000 0000 000000
2017-07-09 01:12:58,0.00,0.35,0.00,26.70,30.55,32.99,13.74,43.16,1020.52,2017.99,3360.00,2975.99,3407.45,599.87,590.90,41.54,0000 0000 0000 0000 000000
2017-07-09 01:17:59,0.00,0.35,0.00,26.70,30.55,32.98,13.75,43.13,1020.52,2017.99,3359.96,2975.97,3407.16,599.97,591.00,41.59,0000 0000 0000 0000 000000
2017-07-09 01:23:00,0.00,0.35,0.00,26.70,30.55,32.98,13.74,43.16,1020.52,2017.99,3359.79,2975.91,3407.02,599.73,590.68,41.64,0000 0000 0000 0000 000000
2017-07-09 01:28:02,0.00,0.35,0.00,26.68,30.55,32.98,13.72,43.25,1020.52,2017.99,3359.75,2975.93,3407.02,599.79,590.78,41.69,0000 0000 0000 0000 000000
2017-07-09 01:33:03,0.01,0.35,0.00,26.67,30.55,32.97,13.75,43.22,1020.52,2017.99,3359.31,2975.83,3407.00,599.97,591.01,41.74,0000 0000 0000 0000 000000
2017-07-09 01:38:05,0.01,0.35,0.00,26.67,30.55,32.99,13.77,43.15,1020.52,2017.99,3359.13,2975.71,3407.00,600.19,591.21,41.79,0000 0000 0000 0000 000000
2017-07-09 01:43:06,0.00,0.35,0.00,26.67,30.54,32.98,13.70,43.19,1020.53,2017.98,3359.01,2975.31,3406.99,599.91,590.92,41.84,0000 0000 0000 0000 000000
2017-07-09 01:48:07,-0.00,0.35,0.00,26.66,30.53,32.98,13.72,43.13,1020.53,2017.99,3359.01,2975.27,3406.99,599.85,590.89,41.89,0000 0000 0000 0000 000000
2017-07-09 01:53:09,0.00,0.35,0.00,26.65,30.52,32.98,13.68,43.47,1020.55,2017.99,3359.00,2975.21,3406.99,600.01,591.14,41.94,0000 0000 0000 0000 000000
2017-07-09 01:58:10,0.01,0.35,0.00,26.63,30.52,32.98,13.75,43.73,1020.59,2017.99,3358.97,2975.03,3406.85,599.83,590.95,41.99,0000 0000 0000 0000 000000
2017-07-09 02:03:12,0.00,0.35,0.00,26.62,30.52,32.98,13.73,43.63,1020.70,2017.99,3358.96,2975.02,3406.87,599.92,591.17,42.04,0000 0000 0000 0000 000000
2017-07-09 02:08:13,-0.00,0.35,0.00,26.62,30.52,32.96,13.80,43.35,1020.89,2017.99,3358.94,2975.02,3406.80,599.81,591.07,42.09,0000 0000 0000 0000 000000
2017-07-09 02:13:14,0.01,0.35,0.00,26.61,30.51,32.95,13.79,43.50,1020.97,2017.99,3358.69,2975.02,3406.60,599.85,591.23,42.14,0000 0000 0000 0000 000000
2017-07-09 02:18:16,0.00,0.35,0.00,26.60,30.50,32.96,13.79,43.33,1021.00,2017.99,3358.63,2975.01,3406.51,599.88,591.39,42.19,0000 0000 0000 0000 000000
2017-07-09 02:23:17,0.01,0.35,0.00,26.57,30.50,32.95,13.72,43.37,1021.01,2017.99,3358.25,2975.00,3406.20,599.84,591.23,42.24,0000 0000 0000 0000 000000
2017-07-09 02:28:19,0.02,0.35,0.00,26.56,30.50,32.94,13.68,43.22,1021.01,2017.99,3358.00,2974.69,3405.99,600.01,591.39,42.29,0000 0000 0000 0000 000000
2017-07-09 02:33:20,0.01,0.35,0.00,26.55,30.48,32.95,13.75,43.30,1021.01,2017.99,3357.96,2974.27,3405.89,599.89,591.40,42.34,0000 0000 0000 0000 000000
2017-07-09 02:38:21,0.01,0.35,0.00,26.54,30.47,32.95,13.81,43.23,1021.01,2017.99,3357.79,2974.10,3405.70,600.18,591.68,42.40,0000 0000 0000 0000 000000
2017-07-09 02:43:22,0.03,0.36,0.00,26.52,30.47,32.94,13.73,43.33,1021.01,2017.99,3357.16,2973.95,3405.13,599.95,591.67,42.45,0000 0000 0000 0000 000000
2017-07-09 02:48:23,0.00,0.36,0.00,26.50,30.46,32.92,13.68,43.24,1021.01,2017.99,3356.99,2973.89,3404.94,599.67,591.27,42.50,0000 0000 0000 0000 000000
2017-07-09 02:53:25,0.00,0.36,0.00,26.48,30.45,32.91,13.87,43.33,1021.03,2018.00,3356.97,2973.87,3404.92,600.18,591.86,42.55,0000 0000 0000 0000 000000
2017-07-09 02:58:26,0.01,0.36,0.00,26.47,30.45,32.90,13.73,43.17,1021.07,2018.00,3356.90,2973.85,3404.90,599.83,591.51,42.60,0000 0000 0000 0000 000000
2017-07-09 03:03:28,0.00,0.36,0.00,26.46,30.43,32.89,13.75,43.19,1021.06,2018.01,3356.78,2973.82,3404.91,599.88,591.62,42.65,0000 0000 0000 0000 000000
2017-07-09 03:08:29,-0.00,0.36,0.00,26.45,30.42,32.88,13.75,43.41,1021.02,2018.01,3356.80,2973.92,3404.94,599.98,591.60,42.70,0000 0000 0000 0000 000000
2017-07-09 03:13:30,0.01,0.36,0.00,26.44,30.42,32.88,13.73,43.43,1021.03,2018.04,3356.44,2973.88,3404.87,600.10,591.85,42.75,0000 0000 0000 0000 000000
2017-07-09 03:18:31,0.01,0.36,0.00,26.42,30.40,32.87,13.73,43.31,1021.02,2018.07,3356.10,2973.78,3404.76,599.56,591.33,42.80,0000 0000 0000 0000 000000
2017-07-09 03:23:33,0.00,0.36,0.00,26.41,30.40,32.85,13.83,43.30,1021.03,2018.10,3356.04,2973.76,3404.67,600.20,592.02,42.85,0000 0000 0000 0000 000000
2017-07-09 03:28:35,0.01,0.36,0.00,26.40,30.38,32.86,13.83,43.23,1021.07,2018.15,3356.03,2973.82,3404.78,600.13,592.00,42.90,0000 0000 0000 0000 000000
2017-07-09 03:33:36,0.02,0.36,0.00,26.37,30.37,32.84,13.79,43.42,1021.10,2018.31,3356.01,2973.79,3404.74,600.11,592.01,42.95,0000 0000 0000 0000 000000
2017-07-09 03:38:37,0.01,0.36,0.00,26.36,30.35,32.82,13.76,43.42,1021.18,2018.46,3356.00,2973.82,3404.61,599.83,591.83,43.00,0000 0000 0000 0000 000000
2017-07-09 03:43:39,0.01,0.36,0.00,26.34,30.35,32.82,13.73,43.29,1021.34,2018.59,3356.00,2973.84,3404.67,599.82,592.01,43.05,0000 0000 0000 0000 000000
2017-07-09 03:48:40,0.00,0.36,0.00,26.32,30.33,32.79,13.74,43.25,1021.45,2018.76,3356.00,2973.91,3404.79,599.87,592.16,43.10,0000 0000 0000 0000 000000
2017-07-09 03:53:42,0.01,0.36,0.00,26.30,30.32,32.79,13.69,43.20,1021.43,2018.86,3356.00,2973.92,3404.84,599.60,591.90,43.15,0000 0000 0000 0000 000000
2017-07-09 03:58:43,0.01,0.36,0.00,26.29,30.30,32.77,13.83,43.35,1021.45,2018.93,3356.00,2973.93,3404.84,599.89,592.18,43.20,0000 0000 0000 0000 000000
2017-07-09 04:03:45,0.00,0.36,0.00,26.26,30.30,32.76,13.84,43.33,1021.50,2018.96,3356.00,2973.94,3404.80,600.28,592.61,43.25,0000 0000 0000 0000 000000
2017-07-09 04:08:46,0.00,0.36,0.00,26.25,30.27,32.75,13.78,43.26,1021.47,2018.99,3356.00,2973.98,3404.94,599.89,592.33,43.30,0000 0000 0000 0000 000000
2017-07-09 04:13:47,0.00,0.36,0.00,26.24,30.27,32.73,13.71,43.26,1021.31,2018.99,3356.00,2973.99,3404.99,599.91,592.13,43.36,0000 0000 0000 0000 000000
2017-07-09 04:18:49,0.00,0.36,0.00,26.22,30.25,32.72,13.75,43.39,1021.23,2018.99,3356.00,2973.99,3404.99,599.78,592.08,43.41,0000 0000 0000 0000 000000
2017-07-09 04:23:50,0.00,0.36,0.00,26.21,30.23,32.71,13.76,43.35,1021.24,2018.99,3356.00,2973.99,3404.97,599.86,592.20,43.46,0000 0000 0000 0000 000000
2017-07-09 04:28:51,0.00,0.36,0.00,26.18,30.22,32.70,13.84,43.40,1021.23,2018.99,3356.00,2973.99,3404.98,600.18,592.52,43.51,0000 0000 0000 0000 000000
2017-07-09 04:33:53,0.00,0.36,0.00,26.17,30.20,32.68,13.85,43.52,1021.29,2018.99,3355.97,2973.99,3404.98,600.09,592.58,43.56,0000 0000 0000 0000 000000
2017-07-09 04:38:54,0.00,0.36,0.00,26.15,30.19,32.66,13.81,43.37,1021.41,2019.00,3355.91,2973.99,3404.98,599.58,592.11,43.61,0000 0000 0000 0000 000000
2017-07-09 04:43:55,0.00,0.36,0.00,26.13,30.17,32.65,13.84,43.49,1021.47,2019.01,3355.88,2973.99,3404.97,600.15,592.77,43.66,0000 0000 0000 0000 000000
2017-07-09 04:48:57,0.00,0.36,0.00,26.12,30.15,32.64,13.79,43.37,1021.41,2019.10,3355.89,2973.99,3404.99,599.78,592.39,43.71,0000 0000 0000 0000 000000
2017-07-09 04:53:58,0.03,0.36,0.00,26.10,30.14,32.61,13.81,43.24,1021.47,2019.37,3355.87,2973.99,3404.99,600.08,592.70,43.76,0000 0000 0000 0000 000000
2017-07-09 04:58:59,0.02,0.36,0.00,26.06,30.12,32.59,13.82,43.43,1021.50,2019.61,3355.77,2973.99,3404.99,600.33,593.10,43.81,0000 0000 0000 0000 000000
2017-07-09 05:04:00,0.02,0.37,0.00,26.05,30.11,32.58,13.86,43.29,1021.50,2019.89,3355.91,2974.01,3404.99,599.78,592.57,43.86,0000 0000 0000 0000 000000
2017-07-09 05:09:02,0.01,0.37,0.00,26.04,30.10,32.57,13.83,43.27,1021.48,2019.95,3355.79,2974.01,3405.00,600.14,593.01,43.91,0000 0000 0000 0000 000000
2017-07-09 05:14:03,0.00,0.37,0.00,26.02,30.07,32.55,13.85,43.27,1021.50,2019.97,3355.52,2974.01,3405.00,600.06,592.79,43.96,0000 0000 0000 0000 000000
2017-07-09 05:19:05,0.00,0.37,0.00,26.00,30.06,32.53,13.81,43.33,1021.50,2019.98,3355.24,2974.01,3405.00,600.06,592.94,44.01,0000 0000 0000 0000 000000
2017-07-09 05:24:07,0.00,0.37,0.00,25.98,30.04,32.51,13.82,43.24,1021.50,2019.99,3355.08,2974.01,3405.00,600.15,593.12,44.06,0000 0000 0000 0000 000000
2017-07-09 05:29:08,0.00,0.37,0.00,25.96,30.02,32.50,13.80,43.51,1021.50,2019.99,3355.10,2974.04,3405.00,599.79,592.68,44.11,0000 0000 0000 0000 000000
2017-07-09 05:34:09,-0.00,0.37,0.00,25.95,30.01,32.49,13.73,43.45,1021.47,2019.99,3355.10,2974.09,3405.02,599.42,592.37,44.16,0000 0000 0000 0000 000000
2017-07-09 05:39:10,0.00,0.37,0.00,25.93,29.99,32.48,13.83,43.38,1021.31,2020.00,3355.06,2974.07,3405.02,600.03,592.96,44.22,0000 0000 0000 0000 000000
2017-07-09 05:44:11,0.00,0.37,0.00,25.91,29.97,32.45,13.80,43.27,1021.12,2020.01,3354.99,2974.00,3404.98,600.06,592.90,44.27,0000 0000 0000 0000 000000
2017-07-09 05:49:12,0.00,0.37,0.00,25.89,29.95,32.42,13.81,43.15,1021.37,2020.02,3354.98,2974.00,3404.98,599.97,592.91,44.32,0000 0000 0000 0000 000000
2017-07-09 05:54:13,0.01,0.37,0.00,25.88,29.94,32.42,13.86,43.34,1021.50,2020.12,3354.95,2974.00,3404.98,600.17,593.31,44.37,0000 0000 0000 0000 000000
2017-07-09 05:59:14,-0.00,0.37,0.00,25.86,29.92,32.40,13.81,43.41,1021.50,2020.22,3354.93,2974.00,3404.98,599.89,593.00,44.42,0000 0000 0000 0000 000000
2017-07-09 06:04:15,0.03,0.37,0.00,25.84,29.90,32.38,13.84,43.33,1021.49,2020.35,3354.82,2974.00,3404.97,599.88,593.08,44.47,0000 0000 0000 0000 000000
2017-07-09 06:09:16,0.03,0.37,0.00,25.82,29.89,32.37,13.73,43.23,1021.46,2020.65,3354.36,2974.00,3404.63,599.66,592.89,44.52,0000 0000 0000 0000 000000
2017-07-09 06:14:18,0.02,0.37,0.00,25.80,29.87,32.36,13.85,43.38,1021.45,2020.84,3354.00,2973.98,3404.40,599.98,593.24,44.57,0000 0000 0000 0000 000000
2017-07-09 06:19:19,0.00,0.37,0.00,25.77,29.85,32.33,13.82,43.45,1021.49,2020.97,3354.00,2973.99,3404.76,600.15,593.54,44.62,0000 0000 0000 0000 000000
2017-07-09 06:24:21,0.00,0.37,0.00,25.75,29.83,32.31,13.82,43.42,1021.50,2020.97,3354.00,2973.98,3404.54,600.03,593.44,44.67,0000 0000 0000 0000 000000
2017-07-09 06:29:22,-0.01,0.37,0.00,25.73,29.81,32.30,13.87,43.50,1021.47,2020.98,3353.99,2973.99,3404.72,600.18,593.62,44.72,0000 0000 0000 0000 000000
2017-07-09 06:34:23,0.00,0.37,0.00,25.71,29.80,32.28,13.85,43.47,1021.45,2020.99,3353.99,2973.99,3404.92,600.09,593.58,44.77,0000 0000 0000 0000 000000
2017-07-09 06:39:24,0.00,0.37,0.00,25.70,29.77,32.26,13.78,43.33,1021.32,2020.99,3353.99,2973.99,3404.97,599.80,593.12,44.82,0000 0000 0000 0000 000000
2017-07-09 06:44:25,0.00,0.37,0.00,25.68,29.76,32.25,13.83,43.38,1021.16,2021.00,3353.99,2974.00,3404.98,600.01,593.30,44.87,0000 0000 0000 0000 000000
2017-07-09 06:49:27,0.00,0.37,0.00,25.65,29.75,32.22,13.77,43.47,1021.39,2021.01,3353.99,2974.00,3404.99,599.84,593.43,44.92,0000 0000 0000 0000 000000
2017-07-09 06:54:28,0.00,0.37,0.00,25.62,29.72,32.20,13.89,43.35,1021.47,2021.01,3353.99,2974.00,3404.99,600.06,593.70,44.97,0000 0000 0000 0000 000000
2017-07-09 06:59:29,0.01,0.37,0.00,25.60,29.70,32.19,13.81,43.44,1021.23,2021.11,3353.98,2974.02,3404.99,599.81,593.32,45.02,0000 0000 0000 0000 000000
2017-07-09 07:04:30,0.01,0.37,0.00,25.59,29.69,32.15,13.85,43.52,1021.05,2021.35,3353.98,2974.02,3404.99,600.30,593.74,45.07,0000 0000 0000 0000 000000
2017-07-09 07:09:32,0.06,0.38,0.00,25.57,29.66,32.15,13.81,43.91,1021.20,2021.43,3353.33,2973.60,3404.40,600.22,593.72,45.12,0000 0000 0000 0000 000000
2017-07-09 07:14:33,0.05,0.38,0.00,25.55,29.65,32.13,13.85,43.54,1021.26,2021.70,3352.59,2973.01,3403.74,600.08,593.61,45.17,0000 0000 0000 0000 000000
2017-07-09 07:19:34,0.01,0.38,0.00,25.53,29.62,32.10,13.80,43.48,1021.37,2021.93,3352.63,2973.00,3403.94,600.15,594.03,45.22,0000 0000 0000 0000 000000
2017-07-09 07:24:35,-0.00,0.38,0.00,25.50,29.60,32.08,13.83,43.41,1021.14,2021.97,3352.70,2973.01,3403.97,600.19,593.95,45.27,0000 0000 0000 0000 000000
2017-07-09 07:29:36,0.01,0.38,0.00,25.49,29.59,32.06,13.77,43.35,1021.06,2021.98,3352.32,2973.01,3403.92,599.73,593.31,45.33,0000 0000 0000 0000 000000
2017-07-09 07:34:38,0.00,0.38,0.00,25.47,29.56,32.04,13.79,43.51,1021.03,2021.99,3352.09,2973.01,3403.95,599.88,593.51,45.38,0000 0000 0000 0000 000000
2017-07-09 07:39:39,-0.00,0.38,0.00,25.44,29.55,32.02,13.82,43.36,1021.04,2021.99,3352.17,2973.07,3403.98,600.20,593.90,45.43,0000 0000 0000 0000 000000
2017-07-09 07:44:40,0.00,0.38,0.00,25.42,29.52,31.99,13.82,43.45,1021.12,2021.99,3352.03,2973.04,3403.97,599.83,593.70,45.48,0000 0000 0000 0000 000000
2017-07-09 07:49:42,0.00,0.38,0.00,25.41,29.50,31.98,13.82,43.36,1021.23,2022.00,3352.01,2973.04,3403.98,599.57,593.55,45.53,0000 0000 0000 0000 000000
2017-07-09 07:54:43,0.00,0.38,0.00,25.38,29.49,31.96,13.79,43.48,1021.31,2022.02,3352.00,2973.08,3403.98,599.99,594.13,45.58,0000 0000 0000 0000 000000
2017-07-09 07:59:45,0.01,0.38,0.00,25.36,29.46,31.95,13.90,43.45,1021.35,2022.12,3352.00,2973.24,3403.98,599.95,594.03,45.63,0000 0000 0000 0000 000000
2017-07-09 08:04:46,0.02,0.38,0.00,25.34,29.45,31.93,13.82,43.44,1021.50,2022.39,3352.01,2973.56,3403.99,599.96,594.13,45.68,0000 0000 0000 0000 000000
2017-07-09 08:09:47,0.01,0.38,0.00,25.32,29.42,31.91,13.88,43.43,1021.50,2022.68,3352.02,2973.72,3403.99,600.12,594.52,45.73,0000 0000 0000 0000 000000
2017-07-09 08:14:49,0.02,0.38,0.00,25.30,29.40,31.89,13.77,43.58,1021.50,2022.85,3352.01,2973.73,3403.99,599.86,594.21,45.78,0000 0000 0000 0000 000000
2017-07-09 08:19:50,-0.00,0.38,0.00,25.27,29.38,31.87,13.83,43.51,1021.50,2022.95,3352.00,2973.89,3403.99,599.99,594.34,45.83,0000 0000 0000 0000 000000
2017-07-09 08:24:51,0.00,0.38,0.00,25.25,29.36,31.85,13.88,43.48,1021.50,2022.98,3352.00,2973.93,3403.99,599.88,594.29,45.88,0000 0000 0000 0000 000000
2017-07-09 08:29:52,0.00,0.38,0.00,25.23,29.34,31.83,13.89,43.60,1021.52,2022.99,3352.00,2973.97,3404.01,600.37,594.76,45.93,0000 0000 0000 0000 000000
2017-07-09 08:34:53,0.00,0.38,0.00,25.21,29.32,31.82,13.86,43.51,1021.54,2022.99,3352.00,2973.99,3404.02,600.03,594.40,45.98,0000 0000 0000 0000 000000
2017-07-09 08:39:55,0.00,0.38,0.00,25.18,29.30,31.79,13.86,43.47,1021.54,2022.99,3352.01,2973.99,3404.10,600.03,594.50,46.03,0000 0000 0000 0000 000000
2017-07-09 08:44:56,0.00,0.38,0.00,25.15,29.27,31.77,13.95,43.56,1021.66,2023.01,3352.01,2973.99,3404.36,600.36,594.93,46.08,0000 0000 0000 0000 000000
2017-07-09 08:49:57,-0.00,0.38,0.00,25.14,29.25,31.76,13.79,43.38,1021.80,2023.04,3352.01,2974.00,3404.61,599.67,594.47,46.13,0000 0000 0000 0000 000000
2017-07-09 08:54:58,0.00,0.38,0.00,25.12,29.23,31.73,13.84,43.50,1021.90,2023.08,3352.02,2974.00,3404.75,600.02,594.73,46.18,0000 0000 0000 0000 000000
2017-07-09 08:59:59,0.01,0.38,0.00,25.10,29.21,31.70,13.87,43.51,1021.95,2023.29,3352.08,2974.03,3404.95,599.87,594.85,46.23,0000 0000 0000 0000 000000
2017-07-09 09:05:01,0.03,0.39,0.00,25.07,29.19,31.68,13.84,43.44,1021.97,2023.65,3352.08,2974.10,3404.98,600.36,595.45,46.28,0000 0000 0000 0000 000000
2017-07-09 09:10:02,0.02,0.39,0.00,25.04,29.16,31.66,13.90,43.58,1021.99,2023.90,3352.05,2974.20,3404.99,600.23,595.27,46.33,0000 0000 0000 0000 000000
2017-07-09 09:15:03,-0.01,0.39,0.00,25.01,29.14,31.64,13.87,43.51,1021.99,2023.98,3352.10,2974.52,3404.99,599.91,595.10,46.39,0000 0000 0000 0000 000000
2017-07-09 09:20:04,-0.01,0.39,0.00,24.99,29.12,31.62,13.94,43.52,1021.99,2023.99,3352.22,2974.81,3404.99,599.90,595.19,46.44,0000 0000 0000 0000 000000
2017-07-09 09:25:06,-0.00,0.39,0.00,24.98,29.10,31.60,13.80,43.39,1021.99,2023.99,3352.15,2974.91,3404.99,599.42,594.63,46.49,0000 0000 0000 0000 000000
2017-07-09 09:30:07,0.00,0.39,0.00,25.03,29.07,31.57,13.86,43.54,1021.99,2023.99,3352.28,2974.95,3405.00,599.70,594.89,46.54,0000 0000 0000 0000 000000
2017-07-09 09:35:08,0.00,0.39,0.00,25.09,29.05,31.64,13.91,43.64,1021.97,2023.99,3352.29,2974.95,3405.02,600.28,595.22,46.59,0000 0000 0000 0000 000000
2017-07-09 09:40:10,0.00,0.39,0.00,25.14,29.05,31.61,13.91,43.74,1021.96,2023.99,3352.26,2974.98,3405.03,599.98,594.78,46.64,0000 0000 0000 0000 000000
2017-07-09 09:45:11,0.00,0.39,0.00,25.16,29.02,31.50,13.80,43.70,1021.99,2024.00,3352.12,2974.98,3405.02,599.77,594.68,46.69,0000 0000 0000 0000 000000
2017-07-09 09:50:12,0.00,0.39,0.00,25.16,29.02,31.53,13.81,43.58,1021.99,2024.00,3352.09,2974.97,3405.01,599.91,594.64,46.74,0000 0000 0000 0000 000000
2017-07-09 09:55:14,0.00,0.39,0.00,25.17,29.02,31.51,13.83,43.58,1021.99,2024.01,3352.04,2974.99,3405.00,599.78,594.58,46.79,0000 0000 0000 0000 000000
2017-07-09 10:00:15,0.01,0.39,0.00,25.20,29.02,31.50,13.83,43.69,1021.99,2024.00,3351.96,2974.79,3404.87,600.04,594.85,46.84,0000 0000 0000 0000 000000
2017-07-09 10:05:17,0.04,0.39,0.00,25.18,29.02,31.52,13.86,43.66,1021.99,2024.01,3351.18,2974.02,3404.05,600.00,594.80,46.89,0000 0000 0000 0000 000000
2017-07-09 10:10:18,0.00,0.39,0.00,25.17,29.02,31.54,13.85,43.67,1021.98,2024.01,3351.02,2973.97,3404.00,599.76,594.67,46.94,0000 0000 0000 0000 000000
2017-07-09 10:15:20,0.00,0.39,0.00,25.17,29.02,31.54,13.91,43.67,1021.99,2024.01,3351.00,2973.93,3403.99,600.14,595.00,46.99,0000 0000 0000 0000 000000
2017-07-09 10:20:21,0.00,0.39,0.00,25.17,29.03,31.56,13.81,43.65,1021.98,2024.01,3351.00,2973.84,3403.98,599.73,594.59,47.04,0000 0000 0000 0000 000000
2017-07-09 10:25:22,0.00,0.39,0.00,25.16,29.05,31.58,13.90,43.67,1021.94,2024.00,3350.98,2973.64,3403.98,600.42,595.24,47.09,0000 0000 0000 0000 000000
2017-07-09 10:30:23,0.00,0.39,0.00,25.15,29.05,31.59,13.82,43.67,1021.95,2024.01,3350.98,2973.56,3403.97,599.81,594.79,47.14,0000 0000 0000 0000 000000
2017-07-09 10:35:24,0.02,0.39,0.00,25.14,29.05,31.61,13.89,43.58,1021.97,2024.00,3350.68,2973.21,3403.72,600.09,595.09,47.19,0000 0000 0000 0000 000000
2017-07-09 10:40:26,0.02,0.39,0.00,25.12,29.05,31.61,13.85,43.58,1021.99,2024.00,3350.10,2973.02,3403.10,599.85,594.77,47.25,0000 0000 0000 0000 000000
2017-07-09 10:45:27,0.00,0.39,0.00,25.10,29.05,31.63,13.86,43.56,1021.99,2024.00,3350.01,2973.00,3403.04,600.28,595.19,47.30,0000 0000 0000 0000 000000
2017-07-09 10:50:28,0.00,0.39,0.00,25.10,29.07,31.62,13.90,43.66,1021.99,2024.00,3350.00,2973.00,3403.00,600.25,595.27,47.35,0000 0000 0000 0000 000000
2017-07-09 10:55:30,0.00,0.39,0.00,25.08,29.07,31.63,13.84,43.58,1021.99,2024.00,3350.00,2973.00,3403.00,600.09,594.88,47.40,0000 0000 0000 0000 000000
2017-07-09 11:00:31,0.00,0.39,0.00,25.07,29.07,31.66,13.90,43.69,1021.99,2024.00,3349.99,2973.00,3403.00,600.07,595.10,47.45,0000 0000 0000 0000 000000
2017-07-09 11:05:32,0.00,0.39,0.00,25.05,29.07,31.65,13.85,43.67,1021.99,2024.00,3349.97,2973.00,3403.00,599.99,594.95,47.50,0000 0000 0000 0000 000000
2017-07-09 11:10:34,2.21,0.44,0.00,25.05,29.07,31.65,13.90,43.72,1021.99,2024.00,3317.95,2953.36,3381.18,600.03,595.22,47.55,0000 0000 0000 0000 000000
2017-07-09 11:15:35,0.22,0.51,0.00,25.02,29.07,31.65,13.88,43.74,1021.99,2023.98,3294.37,2939.09,3365.17,600.06,595.08,47.60,0000 0000 0000 0000 000000
2017-07-09 11:20:37,0.01,0.52,0.00,25.00,29.07,31.67,13.85,43.65,1021.99,2023.99,3294.00,2938.74,3365.00,599.72,594.89,47.65,0000 0000 0000 0000 000000
2017-07-09 11:25:38,0.00,0.52,0.00,24.99,29.07,31.66,13.83,43.62,1021.98,2023.99,3293.99,2938.49,3365.00,599.83,594.99,47.70,0000 0000 0000 0000 000000
2017-07-09 11:30:39,0.01,0.52,0.00,24.96,29.07,31.67,13.88,43.71,1021.98,2023.99,3293.87,2938.19,3364.98,600.35,595.59,47.75,0000 0000 0000 0000 000000
2017-07-09 11:35:41,0.01,0.52,0.00,24.95,29.07,31.67,13.87,43.72,1021.98,2023.99,3293.36,2938.05,3364.92,600.02,595.40,47.80,0000 0000 0000 0000 000000
2017-07-09 11:40:42,0.01,0.52,0.00,24.93,29.07,31.67,13.86,43.77,1021.96,2023.99,3293.01,2938.01,3364.44,599.82,595.11,47.85,0000 0000 0000 0000 000000
2017-07-09 11:45:43,0.00,0.52,0.00,24.91,29.07,31.67,13.94,43.82,1021.93,2023.99,3292.99,2938.00,3364.13,600.16,595.42,47.90,0000 0000 0000 0000 000000
2017-07-09 11:50:44,0.00,0.52,0.00,24.91,29.07,31.67,13.91,43.84,1021.88,2023.99,3292.98,2938.00,3364.01,600.38,595.70,47.95,0000 0000 0000 0000 000000
2017-07-09 11:55:46,0.00,0.52,0.00,24.91,29.06,31.66,13.80,43.72,1021.85,2023.99,3292.94,2937.99,3364.01,599.89,595.08,48.00,0000 0000 0000 0000 000000
2017-07-09 12:00:47,0.01,0.52,0.00,24.90,29.05,31.65,13.93,43.95,1021.87,2023.99,3292.44,2937.98,3364.00,600.00,595.30,48.05,0000 0000 0000 0000 000000
2017-07-09 12:05:48,0.00,0.52,0.00,24.90,29.05,31.65,13.83,43.88,1021.75,2023.99,3292.10,2937.98,3364.00,599.69,595.00,48.10,0000 0000 0000 0000 000000
2017-07-09 12:10:50,0.00,0.52,0.00,24.90,29.06,31.66,13.85,43.92,1021.90,2023.99,3292.01,2937.86,3363.98,599.92,595.35,48.15,0000 0000 0000 0000 000000
2017-07-09 12:15:51,0.01,0.52,0.00,24.90,29.07,31.66,13.81,43.87,1021.90,2023.99,3292.00,2937.43,3363.83,599.74,595.19,48.20,0000 0000 0000 0000 000000
2017-07-09 12:20:52,0.01,0.52,0.00,24.90,29.07,31.67,13.82,43.89,1021.84,2023.99,3291.94,2937.14,3363.33,599.37,594.63,48.25,0000 0000 0000 0000 000000
2017-07-09 12:25:54,0.01,0.52,0.00,24.90,29.07,31.69,13.82,43.88,1021.61,2023.96,3291.43,2937.01,3363.03,600.07,595.25,48.31,0000 0000 0000 0000 000000
2017-07-09 12:30:55,0.00,0.52,0.00,24.89,29.07,31.72,13.92,43.98,1021.58,2023.97,3291.08,2937.01,3363.00,599.97,595.19,48.36,0000 0000 0000 0000 000000
2017-07-09 12:35:56,-0.00,0.52,0.00,24.90,29.09,31.74,13.92,44.06,1021.59,2023.95,3291.00,2937.00,3363.00,600.22,595.42,48.41,0000 0000 0000 0000 000000
2017-07-09 12:40:57,-0.00,0.52,0.00,24.89,29.10,31.79,13.96,44.00,1021.64,2023.89,3290.99,2936.99,3362.99,600.19,595.36,48.46,0000 0000 0000 0000 000000
2017-07-09 12:45:59,0.01,0.52,0.00,24.89,29.10,31.81,13.84,43.99,1021.67,2023.89,3290.95,2936.97,3362.88,599.95,595.25,48.51,0000 0000 0000 0000 000000
2017-07-09 12:51:00,0.00,0.52,0.00,24.90,29.11,31.84,13.87,43.87,1021.54,2023.79,3290.70,2936.91,3362.61,599.99,595.12,48.56,0000 0000 0000 0000 000000
2017-07-09 12:56:01,0.00,0.52,0.00,24.90,29.12,31.86,13.88,43.73,1021.57,2023.60,3290.08,2936.60,3362.15,600.27,595.41,48.61,0000 0000 0000 0000 000000